Location: C�mpuri de-Sus
(45.9500°N, 22.5500°E)
Time: 12:10:46
(UTC+00:00)

Cosmos 839 Rocket - Visible Passes

Search period start: 29 May 2022 00:00
Search period end: 08 June 2022 00:00
Orbit: 968 x 2084 km, 65.9° (Epoch: 28 May)

Date Brightness Start Highest point End Pass type
(mag) Time Alt. Az. Time Alt. Az. Time Alt. Az.
29 May 5.6 00:35:09 10° WNW 00:39:46 20° WSW 00:41:11 19° WSW visible
29 May 6.3 19:52:46 10° NNW 19:56:50 17° NNE 20:01:06 10° ENE visible
29 May 4.7 21:52:03 10° NNW 21:58:18 58° NE 22:03:20 20° ESE visible
29 May 5.1 23:52:24 10° NW 23:58:04 31° WSW 23:59:53 27° SW visible
30 May 6.4 19:10:52 10° NNW 19:14:08 14° NNE 19:17:31 10° NE visible
30 May 5.2 21:10:15 10° NNW 21:16:11 40° NE 21:22:07 13° ESE visible
30 May 4.6 23:10:06 10° NW 23:16:17 47° WSW 23:18:41 35° SSW visible
31 May 5.6 20:28:28 10° NNW 20:33:55 29° NE 20:40:00 10° E visible
31 May 4.2 22:28:01 10° NW 22:34:25 70° WSW 22:37:32 37° SSE visible
01 Jun 6.1 00:31:06 10° W 00:33:34 12° WSW 00:34:06 12° WSW visible
01 Jun 6.0 19:46:42 10° NNW 19:51:30 22° NNE 19:56:43 10° E visible
01 Jun 4.3 21:46:03 10° NNW 21:52:29 82° NE 21:56:26 30° SE visible
01 Jun 5.7 23:47:13 10° WNW 23:51:57 20° WSW 23:53:01 20° WSW visible
02 Jun 6.2 19:04:54 10° NNW 19:08:57 17° NNE 19:13:14 10° ENE visible
02 Jun 4.7 21:04:12 10° NNW 21:10:27 57° NE 21:15:23 21° ESE visible
02 Jun 5.2 23:04:31 10° NW 23:10:15 32° WSW 23:11:58 28° SW visible
03 Jun 5.1 20:22:23 10° NNW 20:28:20 40° NE 20:34:23 13° ESE visible
03 Jun 4.7 22:22:13 10° NW 22:28:27 48° WSW 22:30:58 35° SSW visible
04 Jun 5.6 19:40:36 10° NNW 19:46:04 29° NE 19:52:09 10° E visible
04 Jun 4.3 21:40:08 10° NW 21:46:35 71° WSW 21:50:00 35° SSE visible
04 Jun 6.2 23:43:00 10° W 23:45:45 13° WSW 23:46:36 12° WSW visible
05 Jun 5.9 18:58:50 10° NNW 19:03:39 22° NNE 19:08:52 10° E visible
05 Jun 4.3 20:58:11 10° NNW 21:04:38 80° NE 21:09:05 27° SE visible
05 Jun 5.7 22:59:17 10° WNW 23:04:08 21° WSW 23:05:41 20° SW visible
06 Jun 4.7 20:16:19 10° NNW 20:22:37 56° NE 20:28:11 18° ESE visible
06 Jun 5.3 22:16:37 10° NW 22:22:25 32° WSW 22:24:47 27° SW visible
07 Jun 5.1 19:34:31 10° NNW 19:40:29 40° NE 19:47:20 10° ESE visible
07 Jun 4.8 21:34:19 10° NW 21:40:37 49° WSW 21:43:56 31° S visible
